TVS32F LKPR-LZKZ

Flight info

Callsign TVS32F
Flight time 1h 13m
Altitude 29000
Route VOZ DCT LIKSA DCT UPLAV DCT MAKAL DCT TAKOS
Aircraft B738/M-SDE2E3FGHIRWXY/LB1

Departure

Time 2026-04-22 20:02
Airport Václav Havel Airport Prague (LKPR)

Arrival

Time 2026-04-22 21:15
Airport Košice International Airport (LZKZ)
Time Latitude Longitude Altitude Speed Heading
2026-04-22 19:15 50.10593 14.26278 1179 ft 0 kts 35°
2026-04-22 19:49 50.10590 14.26275 1179 ft 2 kts 35°
2026-04-22 19:50 50.10578 14.26262 1179 ft 2 kts 34°
2026-04-22 19:50 50.10567 14.26250 1179 ft 2 kts 34°
2026-04-22 19:50 50.10559 14.26240 1179 ft 0 kts 34°
2026-04-22 19:50 50.10548 14.26231 1180 ft 2 kts
2026-04-22 19:51 50.10533 14.26236 1180 ft 2 kts 328°
2026-04-22 19:51 50.10526 14.26245 1181 ft 1 kts 304°
2026-04-22 19:51 50.10523 14.26254 1181 ft 0 kts 303°
2026-04-22 19:53 50.10524 14.26251 1181 ft 1 kts 303°
2026-04-22 19:53 50.10533 14.26226 1180 ft 4 kts 295°
2026-04-22 19:54 50.10542 14.26137 1179 ft 11 kts 261°
2026-04-22 19:54 50.10526 14.26036 1179 ft 9 kts 255°
2026-04-22 19:54 50.10513 14.26000 1180 ft 3 kts 201°
2026-04-22 19:54 50.10498 14.26002 1180 ft 2 kts 160°
2026-04-22 19:55 50.10474 14.26032 1181 ft 6 kts 132°
2026-04-22 19:55 50.10451 14.26077 1182 ft 6 kts 127°
2026-04-22 19:55 50.10407 14.26172 1184 ft 18 kts 125°
2026-04-22 19:55 50.10316 14.26361 1191 ft 24 kts 126°
2026-04-22 19:56 50.10233 14.26530 1197 ft 20 kts 124°
2026-04-22 19:56 50.10161 14.26680 1200 ft 19 kts 129°
2026-04-22 19:56 50.10091 14.26821 1202 ft 18 kts 126°
2026-04-22 19:56 50.10026 14.26960 1203 ft 17 kts 126°
2026-04-22 19:57 50.09961 14.27096 1203 ft 17 kts 127°
2026-04-22 19:57 50.09897 14.27226 1203 ft 17 kts 127°
2026-04-22 19:57 50.09830 14.27351 1203 ft 17 kts 136°
2026-04-22 19:57 50.09755 14.27462 1204 ft 16 kts 136°
2026-04-22 19:58 50.09660 14.27609 1205 ft 24 kts 134°
2026-04-22 19:58 50.09544 14.27787 1211 ft 26 kts 135°
2026-04-22 19:58 50.09435 14.27951 1216 ft 23 kts 135°
2026-04-22 19:58 50.09337 14.28103 1220 ft 21 kts 135°
2026-04-22 19:59 50.09245 14.28244 1225 ft 18 kts 139°
2026-04-22 20:00 50.09090 14.28073 1231 ft 0 kts 304°
2026-04-22 20:01 50.09092 14.28069 1231 ft 2 kts 305°
2026-04-22 20:01 50.09140 14.27962 1231 ft 32 kts 306°
2026-04-22 20:01 50.09430 14.27368 1220 ft 113 kts 307°
2026-04-22 20:01 50.10005 14.26188 1224 ft 176 kts 307°
2026-04-22 20:02 50.10749 14.24653 2195 ft 174 kts 308°
2026-04-22 20:02 50.11427 14.23233 3206 ft 169 kts 311°
2026-04-22 20:02 50.12105 14.21841 3809 ft 177 kts 312°
2026-04-22 20:02 50.12811 14.20456 4219 ft 197 kts 313°
2026-04-22 20:03 50.13615 14.18834 4596 ft 221 kts 311°
2026-04-22 20:03 50.14517 14.16961 5189 ft 238 kts 309°
2026-04-22 20:03 50.15445 14.14924 5867 ft 250 kts 309°
2026-04-22 20:03 50.16360 14.12916 6386 ft 266 kts 306°
2026-04-22 20:04 50.17142 14.10521 7084 ft 279 kts 291°
2026-04-22 20:04 50.17374 14.07784 8117 ft 282 kts 271°
2026-04-22 20:04 50.17039 14.04943 8991 ft 290 kts 255°
2026-04-22 20:04 50.16229 14.02337 9678 ft 302 kts 238°
2026-04-22 20:05 50.14895 14.00207 10483 ft 309 kts 218°
2026-04-22 20:05 50.13133 13.98573 11117 ft 320 kts 205°
2026-04-22 20:05 50.11042 13.97631 11460 ft 339 kts 186°
2026-04-22 20:05 50.08890 13.97455 11993 ft 350 kts 178°
2026-04-22 20:06 50.06713 13.97630 12733 ft 351 kts 172°
2026-04-22 20:06 50.04517 13.97980 13377 ft 359 kts 171°
2026-04-22 20:06 50.02184 13.98450 14231 ft 360 kts 168°
2026-04-22 20:06 49.99896 13.99026 15004 ft 362 kts 166°
2026-04-22 20:07 49.97724 13.99660 15716 ft 362 kts 160°
2026-04-22 20:07 49.95699 14.00985 16161 ft 358 kts 143°
2026-04-22 20:07 49.93966 14.03081 16285 ft 353 kts 131°
2026-04-22 20:07 49.92378 14.05604 16282 ft 346 kts 127°
2026-04-22 20:08 49.90957 14.08072 16284 ft 347 kts 125°
2026-04-22 20:08 49.89527 14.10620 16287 ft 347 kts 125°
2026-04-22 20:08 49.87978 14.13392 16692 ft 359 kts 127°
2026-04-22 20:08 49.86429 14.16017 17783 ft 349 kts 126°
2026-04-22 20:09 49.84945 14.18721 18512 ft 349 kts 120°
2026-04-22 20:09 49.83918 14.21669 19147 ft 342 kts 103°
2026-04-22 20:09 49.83569 14.24844 19822 ft 335 kts 88°
2026-04-22 20:09 49.83401 14.28099 20378 ft 342 kts 96°
2026-04-22 20:10 49.82848 14.31373 21055 ft 347 kts 102°
2026-04-22 20:10 49.82289 14.34460 21864 ft 341 kts 99°
2026-04-22 20:10 49.81870 14.37518 22461 ft 341 kts 96°
2026-04-22 20:10 49.81500 14.40688 23005 ft 344 kts 96°
2026-04-22 20:11 49.81124 14.44013 23618 ft 345 kts 96°
2026-04-22 20:11 49.80758 14.47150 24083 ft 349 kts 96°
2026-04-22 20:11 49.80365 14.50362 24705 ft 349 kts 96°
2026-04-22 20:11 49.79961 14.53527 25359 ft 347 kts 97°
2026-04-22 20:12 49.79535 14.56747 26191 ft 340 kts 97°
2026-04-22 20:12 49.79103 14.59967 26967 ft 334 kts 97°
2026-04-22 20:12 49.78832 14.61972 27420 ft 331 kts 97°
2026-04-22 20:12 49.78274 14.66077 28235 ft 327 kts 98°
2026-04-22 20:13 49.77835 14.69302 28761 ft 327 kts 98°
2026-04-22 20:13 49.77391 14.72556 29217 ft 327 kts 98°
2026-04-22 20:13 49.76963 14.75691 29264 ft 331 kts 98°
2026-04-22 20:14 49.76107 14.81893 29261 ft 323 kts 98°
2026-04-22 20:14 49.75238 14.88186 29261 ft 324 kts 97°
2026-04-22 20:15 49.74384 14.94341 29261 ft 325 kts 97°
2026-04-22 20:15 49.73490 15.00749 29263 ft 325 kts 97°
2026-04-22 20:16 49.72636 15.06851 29258 ft 325 kts 97°
2026-04-22 20:16 49.71746 15.13179 29261 ft 324 kts 97°
2026-04-22 20:17 49.70882 15.19308 29257 ft 323 kts 97°
2026-04-22 20:17 49.69993 15.25585 29253 ft 324 kts 97°
2026-04-22 20:18 49.69122 15.31692 29243 ft 325 kts 97°
2026-04-22 20:18 49.68242 15.37852 29236 ft 325 kts 97°
2026-04-22 20:19 49.67337 15.44156 29238 ft 324 kts 97°
2026-04-22 20:19 49.66459 15.50243 29245 ft 322 kts 97°
2026-04-22 20:20 49.65560 15.56471 29243 ft 324 kts 97°
2026-04-22 20:20 49.64673 15.62587 29243 ft 327 kts 97°
2026-04-22 20:21 49.63735 15.69005 29236 ft 325 kts 98°
2026-04-22 20:21 49.62833 15.75149 29236 ft 325 kts 98°
2026-04-22 20:22 49.61912 15.81397 29227 ft 326 kts 98°
2026-04-22 20:22 49.61000 15.87578 29219 ft 326 kts 98°
2026-04-22 20:23 49.60062 15.93914 29223 ft 327 kts 98°
2026-04-22 20:23 49.59133 16.00139 29225 ft 324 kts 97°
2026-04-22 20:24 49.58199 16.06403 29212 ft 325 kts 97°
2026-04-22 20:24 49.57401 16.11723 29222 ft 326 kts 97°
2026-04-22 20:25 49.56291 16.19085 29214 ft 322 kts 98°
2026-04-22 20:25 49.55316 16.25533 29215 ft 325 kts 97°
2026-04-22 20:26 49.54361 16.31824 29212 ft 324 kts 97°
2026-04-22 20:26 49.53402 16.38106 29218 ft 324 kts 98°
2026-04-22 20:27 49.52466 16.44214 29213 ft 323 kts 97°
2026-04-22 20:27 49.51506 16.50463 29215 ft 325 kts 97°
2026-04-22 20:28 49.50574 16.56502 29218 ft 325 kts 97°
2026-04-22 20:28 49.49596 16.62816 29210 ft 325 kts 97°
2026-04-22 20:29 49.48627 16.69040 29198 ft 324 kts 98°
2026-04-22 20:29 49.47631 16.75427 29192 ft 325 kts 98°
2026-04-22 20:30 49.46677 16.81520 29200 ft 324 kts 98°
2026-04-22 20:30 49.45695 16.87770 29191 ft 324 kts 98°
2026-04-22 20:31 49.44717 16.93973 29197 ft 325 kts 97°
2026-04-22 20:31 49.43742 17.00124 29194 ft 324 kts 98°
2026-04-22 20:32 49.42748 17.06370 29196 ft 324 kts 98°
2026-04-22 20:32 49.41772 17.12480 29202 ft 324 kts 98°
2026-04-22 20:33 49.40774 17.18709 29204 ft 324 kts 98°
2026-04-22 20:33 49.39790 17.24825 29202 ft 326 kts 98°
2026-04-22 20:34 49.38777 17.31095 29204 ft 322 kts 98°
2026-04-22 20:34 49.37799 17.37132 29201 ft 324 kts 97°
2026-04-22 20:35 49.36765 17.43495 29201 ft 324 kts 97°
2026-04-22 20:35 49.35783 17.49505 29200 ft 323 kts 97°
2026-04-22 20:36 49.34752 17.55796 29198 ft 324 kts 97°
2026-04-22 20:36 49.33747 17.61914 29205 ft 325 kts 98°
2026-04-22 20:37 49.32692 17.68306 29207 ft 326 kts 98°
2026-04-22 20:37 49.31676 17.74440 29198 ft 326 kts 98°
2026-04-22 20:38 49.30673 17.80464 29191 ft 325 kts 98°
2026-04-22 20:38 49.29653 17.86573 29184 ft 325 kts 98°
2026-04-22 20:39 49.28567 17.92712 29188 ft 329 kts 102°
2026-04-22 20:39 49.26923 17.98846 29192 ft 335 kts 107°
2026-04-22 20:40 49.25150 18.04770 29185 ft 334 kts 107°
2026-04-22 20:40 49.23358 18.10814 29189 ft 332 kts 107°
2026-04-22 20:41 49.21661 18.16624 29182 ft 333 kts 106°
2026-04-22 20:41 49.19893 18.22715 29179 ft 333 kts 106°
2026-04-22 20:42 49.18218 18.28481 29174 ft 332 kts 106°
2026-04-22 20:42 49.16436 18.34607 29178 ft 333 kts 106°
2026-04-22 20:43 49.14741 18.40421 29176 ft 334 kts 105°
2026-04-22 20:43 49.12975 18.46460 29173 ft 332 kts 105°
2026-04-22 20:44 49.11247 18.52366 29174 ft 333 kts 106°
2026-04-22 20:44 49.09494 18.58323 29168 ft 332 kts 105°
2026-04-22 20:45 49.07744 18.64272 29172 ft 333 kts 106°
2026-04-22 20:45 49.05977 18.70258 29166 ft 335 kts 107°
2026-04-22 20:46 49.03341 18.79159 29172 ft 335 kts 107°
2026-04-22 20:46 49.01575 18.85098 29173 ft 334 kts 107°
2026-04-22 20:47 48.99823 18.90983 29170 ft 334 kts 106°
2026-04-22 20:47 48.98117 18.96807 29160 ft 332 kts 104°
2026-04-22 20:48 48.96768 19.02814 29161 ft 329 kts 100°
2026-04-22 20:48 48.95538 19.08799 29158 ft 329 kts 101°
2026-04-22 20:49 48.94226 19.14900 29157 ft 328 kts 101°
2026-04-22 20:49 48.93575 19.17871 29004 ft 332 kts 101°
2026-04-22 20:49 48.92909 19.20876 28774 ft 328 kts 101°
2026-04-22 20:50 48.92225 19.23925 28393 ft 324 kts 101°
2026-04-22 20:50 48.91567 19.26857 27968 ft 321 kts 101°
2026-04-22 20:50 48.90921 19.29727 27630 ft 317 kts 101°
2026-04-22 20:50 48.90290 19.32528 27276 ft 313 kts 101°
2026-04-22 20:51 48.89611 19.35541 26793 ft 312 kts 101°
2026-04-22 20:51 48.88950 19.38489 26293 ft 311 kts 101°
2026-04-22 20:51 48.88326 19.41253 26006 ft 305 kts 101°
2026-04-22 20:51 48.87716 19.43942 25659 ft 298 kts 101°
2026-04-22 20:52 48.87105 19.46648 25336 ft 309 kts 101°
2026-04-22 20:52 48.86441 19.49628 24891 ft 318 kts 101°
2026-04-22 20:52 48.85799 19.52475 24474 ft 318 kts 101°
2026-04-22 20:52 48.85164 19.55260 24133 ft 313 kts 102°
2026-04-22 20:53 48.84542 19.57971 23781 ft 310 kts 102°
2026-04-22 20:53 48.83917 19.60696 23412 ft 306 kts 101°
2026-04-22 20:53 48.83255 19.63589 22960 ft 305 kts 101°
2026-04-22 20:53 48.82635 19.66295 22612 ft 301 kts 102°
2026-04-22 20:54 48.82028 19.68949 22241 ft 299 kts 102°
2026-04-22 20:54 48.81421 19.71599 21896 ft 296 kts 102°
2026-04-22 20:54 48.80798 19.74316 21488 ft 295 kts 102°
2026-04-22 20:54 48.80204 19.76907 21161 ft 291 kts 102°
2026-04-22 20:55 48.79619 19.79451 20839 ft 287 kts 102°
2026-04-22 20:55 48.79043 19.81954 20503 ft 285 kts 102°
2026-04-22 20:55 48.78426 19.84651 20153 ft 294 kts 102°
2026-04-22 20:55 48.77811 19.87337 19568 ft 295 kts 102°
2026-04-22 20:56 48.77222 19.89879 19344 ft 285 kts 103°
2026-04-22 20:56 48.76648 19.92342 19055 ft 281 kts 102°
2026-04-22 20:56 48.76065 19.94863 18765 ft 288 kts 102°
2026-04-22 20:56 48.75437 19.97598 18419 ft 292 kts 103°
2026-04-22 20:57 48.74836 20.00198 17796 ft 300 kts 103°
2026-04-22 20:57 48.74226 20.02836 17508 ft 305 kts 103°
2026-04-22 20:57 48.73582 20.05618 17212 ft 316 kts 104°
2026-04-22 20:57 48.72901 20.08538 16883 ft 313 kts 104°
2026-04-22 20:58 48.72257 20.11279 16480 ft 311 kts 104°
2026-04-22 20:58 48.71611 20.14028 15984 ft 311 kts 104°
2026-04-22 20:58 48.70975 20.16738 15702 ft 309 kts 104°
2026-04-22 20:58 48.70327 20.19502 15369 ft 311 kts 104°
2026-04-22 20:59 48.69647 20.22400 14947 ft 309 kts 104°
2026-04-22 20:59 48.69002 20.25143 14447 ft 308 kts 105°
2026-04-22 20:59 48.68380 20.27790 14199 ft 306 kts 105°
2026-04-22 20:59 48.67735 20.30537 13898 ft 307 kts 105°
2026-04-22 21:00 48.67060 20.33393 13683 ft 296 kts 105°
2026-04-22 21:00 48.66445 20.35979 13232 ft 289 kts 104°
2026-04-22 21:00 48.65853 20.38486 12634 ft 288 kts 105°
2026-04-22 21:00 48.65251 20.41034 12304 ft 280 kts 105°
2026-04-22 21:01 48.64655 20.43553 12028 ft 276 kts 104°
2026-04-22 21:01 48.64061 20.46064 11679 ft 275 kts 104°
2026-04-22 21:01 48.63478 20.48535 11418 ft 282 kts 104°
2026-04-22 21:01 48.62897 20.50991 11109 ft 281 kts 105°
2026-04-22 21:02 48.62306 20.53477 10499 ft 281 kts 105°
2026-04-22 21:02 48.61681 20.56090 10220 ft 272 kts 105°
2026-04-22 21:02 48.61116 20.58444 10077 ft 263 kts 105°
2026-04-22 21:02 48.60560 20.60772 9850 ft 259 kts 105°
2026-04-22 21:03 48.60015 20.63053 9588 ft 259 kts 104°
2026-04-22 21:03 48.59441 20.65466 9190 ft 264 kts 105°
2026-04-22 21:03 48.58862 20.67904 8938 ft 279 kts 106°
2026-04-22 21:03 48.58269 20.70397 8720 ft 280 kts 106°
2026-04-22 21:04 48.57683 20.72819 8449 ft 269 kts 106°
2026-04-22 21:04 48.57108 20.75198 7950 ft 268 kts 106°
2026-04-22 21:04 48.56499 20.77728 7415 ft 266 kts 106°
2026-04-22 21:04 48.55940 20.80043 7239 ft 255 kts 105°
2026-04-22 21:05 48.55403 20.82261 7004 ft 252 kts 105°
2026-04-22 21:05 48.54858 20.84510 6775 ft 249 kts 105°
2026-04-22 21:05 48.54283 20.86900 6543 ft 245 kts 105°
2026-04-22 21:05 48.53767 20.89033 6398 ft 240 kts 105°
2026-04-22 21:06 48.53251 20.91173 6160 ft 238 kts 105°
2026-04-22 21:06 48.52738 20.93296 5884 ft 238 kts 105°
2026-04-22 21:06 48.52208 20.95471 5756 ft 225 kts 104°
2026-04-22 21:06 48.51716 20.97487 5556 ft 216 kts 104°
2026-04-22 21:07 48.51261 20.99358 5410 ft 212 kts 104°
2026-04-22 21:07 48.50806 21.01240 5244 ft 210 kts 104°
2026-04-22 21:07 48.50367 21.03109 5068 ft 205 kts 101°
2026-04-22 21:07 48.50015 21.05079 4882 ft 200 kts 96°
2026-04-22 21:08 48.49750 21.06900 4760 ft 193 kts 95°
2026-04-22 21:08 48.49495 21.08695 4444 ft 195 kts 95°
2026-04-22 21:08 48.49229 21.10492 4176 ft 194 kts 96°
2026-04-22 21:08 48.48943 21.12347 4080 ft 184 kts 96°
2026-04-22 21:09 48.48690 21.14041 3914 ft 177 kts 92°
2026-04-22 21:09 48.48661 21.15625 3781 ft 163 kts 70°
2026-04-22 21:09 48.49070 21.16972 3665 ft 154 kts 46°
2026-04-22 21:09 48.49812 21.17931 3567 ft 148 kts 25°
2026-04-22 21:10 48.50697 21.18520 3487 ft 145 kts 17°
2026-04-22 21:10 48.51586 21.18949 3490 ft 148 kts 13°
2026-04-22 21:10 48.52478 21.19298 3356 ft 149 kts 11°
2026-04-22 21:10 48.53408 21.19631 3137 ft 149 kts 11°
2026-04-22 21:11 48.54385 21.19975 2938 ft 147 kts 10°
2026-04-22 21:11 48.55293 21.20290 2760 ft 144 kts 11°
2026-04-22 21:11 48.56142 21.20586 2559 ft 138 kts 11°
2026-04-22 21:11 48.56997 21.20882 2462 ft 136 kts 11°
2026-04-22 21:12 48.57598 21.21091 2290 ft 139 kts 11°
2026-04-22 21:12 48.58720 21.21480 2022 ft 132 kts 11°
2026-04-22 21:12 48.59546 21.21754 1914 ft 135 kts 10°
2026-04-22 21:12 48.60387 21.22054 1715 ft 137 kts 11°
2026-04-22 21:13 48.61255 21.22364 1513 ft 138 kts
2026-04-22 21:13 48.62141 21.22657 1363 ft 137 kts
2026-04-22 21:13 48.62990 21.22959 1161 ft 139 kts 11°
2026-04-22 21:13 48.63840 21.23260 992 ft 137 kts 10°
2026-04-22 21:14 48.64685 21.23547 826 ft 136 kts 11°
2026-04-22 21:14 48.65551 21.23851 739 ft 124 kts 11°
2026-04-22 21:14 48.66124 21.24047 747 ft 64 kts 12°
2026-04-22 21:14 48.66470 21.24167 747 ft 54 kts 13°
2026-04-22 21:15 48.66766 21.24265 749 ft 38 kts 11°
2026-04-22 21:15 48.67011 21.24364 750 ft 36 kts 12°
2026-04-22 21:15 48.67179 21.24415 751 ft 21 kts
2026-04-22 21:15 48.67242 21.24317 752 ft 14 kts 284°
2026-04-22 21:16 48.67249 21.24269 753 ft 0 kts 283°
2026-04-22 21:16 48.67257 21.24220 753 ft 11 kts 282°
2026-04-22 21:16 48.67276 21.24098 754 ft 13 kts 283°
2026-04-22 21:16 48.67292 21.23990 754 ft 6 kts 283°
2026-04-22 21:17 48.67301 21.23937 755 ft 3 kts 289°
2026-04-22 21:17 48.67311 21.23916 756 ft 3 kts 319°
2026-04-22 21:17 48.67339 21.23880 756 ft 5 kts 291°
2026-04-22 21:17 48.67332 21.23855 757 ft 0 kts 216°